KQ4NAL Weather Reports


Display with metric or nautical units.
time (UTC)temp
F
wind
direction
speed
MPH
gust
MPH
rain 1hr
in
rain 24hr
in
rain mn
in
humidity
%
barometer
mb
20260903202723 96 252 3.0 5.0 0.00 0.00 0.00 52 1016.0
20260903202220 96 224 5.0 7.0 0.00 0.00 0.00 53 1016.0
20260903201719 97 224 4.0 6.0 0.00 0.00 0.00 51 1016.1
20260903201214 97 347 0.0 0.0 0.00 0.00 0.00 49 1016.1
20260903200708 97 293 4.0 6.0 0.00 0.00 0.00 49 1016.3
20260903200204 98 336 3.0 5.0 0.00 0.00 0.00 51 1016.3
20260903195659 98 298 2.0 3.0 0.00 0.00 0.00 49 1016.4
20260903195155 98 281 2.0 2.0 0.00 0.00 0.00 51 1016.5
20260903194655 98 312 3.0 5.0 0.00 0.00 0.00 50 1016.5
20260903194150 97 228 2.0 3.0 0.00 0.00 0.00 50 1016.5
20260903193646 97 116 4.0 7.0 0.00 0.00 0.00 51 1016.6
20260903193146 98 234 4.0 7.0 0.00 0.00 0.00 49 1016.6
20260903192642 98 222 4.0 5.0 0.00 0.00 0.00 49 1016.7
20260903192137 98 294 2.0 2.0 0.00 0.00 0.00 49 1016.8
20260903191634 96 216 7.0 9.0 0.00 0.00 0.00 51 1016.9
20260903191133 97 210 6.0 6.0 0.00 0.00 0.00 50 1016.8
20260903190633 97 218 4.0 8.0 0.00 0.00 0.00 50 1016.9
20260903190133 96 318 2.0 3.0 0.00 0.00 0.00 51 1016.9
20260903185628 96 228 5.0 8.0 0.00 0.00 0.00 51 1016.9
20260903185123 98 182 6.0 7.0 0.00 0.00 0.00 51 1016.9
20260903184620 97 289 3.0 3.0 0.00 0.00 0.00 51 1016.8
20260903184115 97 223 5.0 7.0 0.00 0.00 0.00 51 1016.8
20260903183614 97 351 3.0 3.0 0.00 0.00 0.00 49 1016.8
20260903183109 96 216 9.0 11.0 0.00 0.00 0.00 52 1016.9
20260903182608 96 342 1.0 2.0 0.00 0.00 0.00 54 1016.9
20260903182104 98 344 1.0 1.0 0.00 0.00 0.00 51 1017.1
20260903181602 97 326 5.0 6.0 0.00 0.00 0.00 49 1017.0
20260903181057 97 299 1.0 2.0 0.00 0.00 0.00 51 1017.2
20260903180552 97 339 0.0 0.0 0.00 0.00 0.00 52 1017.0
20260903180047 96 322 0.0 0.0 0.00 0.00 0.00 51 1017.3
20260903175545 97 352 0.0 0.0 0.00 0.00 0.00 49 1017.3
20260903175040 97 337 2.0 3.0 0.00 0.00 0.00 49 1017.4
20260903174535 96 291 2.0 2.0 0.00 0.00 0.00 51 1017.7
20260903174029 97 5 1.0 2.0 0.00 0.00 0.00 50 1017.7
20260903173524 96 324 0.0 0.0 0.00 0.00 0.00 53 1017.6
20260903173020 96 187 5.0 6.0 0.00 0.00 0.00 53 1017.6
20260903172514 95 284 2.0 2.0 0.00 0.00 0.00 52 1017.8
20260903172010 96 358 1.0 2.0 0.00 0.00 0.00 50 1017.9
20260903171505 95 266 1.0 2.0 0.00 0.00 0.00 53 1017.8
20260903171000 96 306 4.0 7.0 0.00 0.00 0.00 49 1017.8
20260903170459 96 344 0.0 0.0 0.00 0.00 0.00 52 1017.7
20260903165954 96 332 4.0 8.0 0.00 0.00 0.00 50 1017.9
20260903165453 95 305 2.0 2.0 0.00 0.00 0.00 51 1017.9
20260903164948 95 335 3.0 3.0 0.00 0.00 0.00 51 1017.9
20260903164444 95 324 4.0 6.0 0.00 0.00 0.00 50 1018.1
20260903163943 95 330 3.0 5.0 0.00 0.00 0.00 51 1018.0
20260903163439 96 303 1.0 1.0 0.00 0.00 0.00 52 1018.0
20260903162935 94 315 1.0 5.0 0.00 0.00 0.00 54 1018.2
20260903162431 95 217 3.0 3.0 0.00 0.00 0.00 55 1018.3
20260903161926 95 356 2.0 3.0 0.00 0.00 0.00 53 1018.5
20260903161421 96 322 1.0 1.0 0.00 0.00 0.00 53 1018.2
20260903160918 94 336 3.0 5.0 0.00 0.00 0.00 54 1018.4
20260903160416 94 303 3.0 5.0 0.00 0.00 0.00 53 1018.7
20260903155915 94 296 4.0 5.0 0.00 0.00 0.00 54 1018.5
20260903155410 95 280 4.0 5.0 0.00 0.00 0.00 52 1018.5
20260903154907 94 314 0.0 1.0 0.00 0.00 0.00 55 1018.4
20260903154402 95 334 0.0 0.0 0.00 0.00 0.00 54 1018.3
20260903153902 94 335 0.0 0.0 0.00 0.00 0.00 54 1018.3
20260903153358 93 340 2.0 3.0 0.00 0.00 0.00 54 1018.2
20260903152854 93 281 2.0 2.0 0.00 0.00 0.00 55 1018.3
20260903152350 93 40 3.0 5.0 0.00 0.00 0.00 59 1018.3
20260903151845 92 344 3.0 5.0 0.00 0.00 0.00 61 1018.4
20260903151341 93 49 3.0 3.0 0.00 0.00 0.00 61 1018.4
20260903150840 92 328 1.0 1.0 0.00 0.00 0.00 62 1018.5
20260903150335 91 345 1.0 2.0 0.00 0.00 0.00 64 1018.3
20260903145830 91 341 1.0 2.0 0.00 0.00 0.00 65 1018.4
20260903145325 90 299 3.0 3.0 0.00 0.00 0.00 65 1018.4
20260903144824 90 343 3.0 3.0 0.00 0.00 0.00 68 1018.2
20260903144320 90 282 1.0 1.0 0.00 0.00 0.00 70 1018.2
20260903143815 89 332 1.0 2.0 0.00 0.00 0.00 71 1018.4
20260903143312 89 347 0.0 0.0 0.00 0.00 0.00 71 1018.3
20260903142807 88 317 0.0 0.0 0.00 0.00 0.00 72 1018.4
20260903142306 87 344 1.0 1.0 0.00 0.00 0.00 74 1018.4
20260903141759 87 324 1.0 2.0 0.00 0.00 0.00 75 1018.3
20260903141255 87 331 1.0 2.0 0.00 0.00 0.00 75 1018.3
20260903140754 86 277 2.0 2.0 0.00 0.00 0.00 77 1018.3
20260903140249 85 328 1.0 2.0 0.00 0.00 0.00 76 1018.5
20260903135740 85 225 3.0 5.0 0.00 0.00 0.00 78 1018.5
20260903135235 85 186 3.0 3.0 0.00 0.00 0.00 78 1018.6
20260903134734 84 197 1.0 3.0 0.00 0.00 0.00 78 1018.6
20260903134230 84 291 0.0 0.0 0.00 0.00 0.00 80 1018.5
20260903133727 84 300 0.0 0.0 0.00 0.00 0.00 79 1018.6
20260903133223 84 344 0.0 0.0 0.00 0.00 0.00 80 1018.7
20260903132723 83 345 0.0 0.0 0.00 0.00 0.00 80 1018.9
20260903132218 82 340 0.0 0.0 0.00 0.00 0.00 82 1019.0
20260903131713 82 317 0.0 0.0 0.00 0.00 0.00 82 1018.9
20260903131213 81 341 0.0 0.0 0.00 0.00 0.00 84 1019.1
20260903130708 80 358 0.0 0.0 0.00 0.00 0.00 85 1019.0
20260903130203 80 318 0.0 0.0 0.00 0.00 0.00 86 1019.0
20260903125700 80 1 0.0 0.0 0.00 0.00 0.00 87 1018.9
20260903125156 79 353 0.0 0.0 0.00 0.00 0.00 88 1019.1
20260903124655 78 351 0.0 0.0 0.00 0.00 0.00 91 1018.9
20260903124155 77 352 0.0 0.0 0.00 0.00 0.00 93 1018.9
20260903123654 75 351 0.0 0.0 0.00 0.00 0.00 98 1019.0
20260903123154 74 355 0.0 0.0 0.00 0.00 0.00 99 1018.6
20260903122653 74 341 0.0 0.0 0.00 0.00 0.00 99 1018.9
20260903122148 73 341 0.0 0.0 0.00 0.00 0.00 99 1018.9
20260903121647 73 352 0.0 0.0 0.00 0.00 0.00 99 1018.9
20260903121143 73 351 0.0 0.0 0.00 0.00 0.00 99 1019.0
20260903120642 72 345 0.0 0.0 0.00 0.00 0.00 99 1019.0
20260903120137 72 346 0.0 0.0 0.00 0.00 0.00 99 1019.0
20260903115635 73 345 0.0 0.0 0.00 0.00 0.00 99 1018.9
20260903115130 71 345 0.0 0.0 0.00 0.00 0.00 99 1019.0
20260903114626 71 345 0.0 0.0 0.00 0.00 0.00 99 1018.7
20260903114121 71 346 0.0 0.0 0.00 0.00 0.00 99 1018.8
20260903113616 70 344 0.0 0.0 0.00 0.00 0.00 99 1018.7
20260903113112 70 346 0.0 0.0 0.00 0.00 0.00 99 1018.8
20260903112609 71 347 0.0 0.0 0.00 0.00 0.00 99 1018.7
20260903112108 71 347 0.0 0.0 0.00 0.00 0.00 99 1018.7
20260903111607 71 344 0.0 0.0 0.00 0.00 0.00 99 1018.8
20260903111058 70 347 0.0 0.0 0.00 0.00 0.00 99 1018.5
20260903110553 70 350 0.0 0.0 0.00 0.00 0.00 99 1018.4
20260903110048 70 350 0.0 0.0 0.00 0.00 0.00 99 1018.4
20260903105543 70 346 0.0 0.0 0.00 0.00 0.00 99 1018.3
20260903105038 71 344 0.0 0.0 0.00 0.00 0.00 99 1018.2
20260903104537 70 345 0.0 0.0 0.00 0.00 0.00 99 1018.3
20260903104033 70 345 0.0 0.0 0.00 0.00 0.00 99 1018.4
20260903103529 71 345 0.0 0.0 0.00 0.00 0.00 99 1018.4
20260903103025 70 345 0.0 0.0 0.00 0.00 0.00 99 1018.1
20260903102520 70 343 0.0 0.0 0.00 0.00 0.00 99 1018.2
20260903102019 71 336 0.0 0.0 0.00 0.00 0.00 99 1018.2
20260903101514 70 354 0.0 0.0 0.00 0.00 0.00 99 1018.2
20260903101010 70 350 0.0 0.0 0.00 0.00 0.00 99 1018.3
20260903100504 70 337 0.0 0.0 0.00 0.00 0.00 99 1018.3
20260903100001 71 347 0.0 0.0 0.00 0.00 0.00 99 1018.1
20260903095455 71 347 0.0 0.0 0.00 0.00 0.00 99 1018.2
20260903094951 71 343 0.0 0.0 0.00 0.00 0.00 99 1018.1
20260903094450 71 343 0.0 0.0 0.00 0.00 0.00 99 1018.2
20260903093946 71 346 0.0 0.0 0.00 0.00 0.00 99 1018.3
20260903093441 71 341 0.0 0.0 0.00 0.00 0.00 99 1018.1
20260903092937 71 346 0.0 0.0 0.00 0.00 0.00 99 1018.1
20260903092437 71 346 0.0 0.0 0.00 0.00 0.00 99 1018.0
20260903091936 71 346 0.0 0.0 0.00 0.00 0.00 99 1018.2
20260903091434 71 346 0.0 0.0 0.00 0.00 0.00 99 1017.9
20260903090929 71 346 0.0 0.0 0.00 0.00 0.00 99 1018.0
20260903090425 71 346 0.0 0.0 0.00 0.00 0.00 99 1018.1
20260903085923 71 346 0.0 0.0 0.00 0.00 0.00 99 1018.1
20260903085422 71 347 0.0 0.0 0.00 0.00 0.00 99 1018.0
20260903084922 71 346 0.0 0.0 0.00 0.00 0.00 99 1017.8
20260903084420 71 346 0.0 0.0 0.00 0.00 0.00 99 1018.0
20260903083916 71 347 0.0 0.0 0.00 0.00 0.00 99 1018.0
20260903083412 71 346 0.0 0.0 0.00 0.00 0.00 99 1018.0
20260903082911 71 346 0.0 0.0 0.00 0.00 0.00 99 1018.0
20260903082406 72 346 0.0 0.0 0.00 0.00 0.00 99 1018.0
20260903081901 72 352 0.0 0.0 0.00 0.00 0.00 99 1017.9
20260903081356 71 345 0.0 0.0 0.00 0.00 0.00 99 1017.8
20260903080852 71 345 0.0 0.0 0.00 0.00 0.00 99 1018.0
20260903080349 71 345 0.0 0.0 0.00 0.00 0.00 99 1018.0
20260903075849 71 345 0.0 0.0 0.00 0.00 0.00 99 1018.0
20260903075345 72 345 0.0 0.0 0.00 0.00 0.00 99 1017.9
20260903074844 72 345 0.0 0.0 0.00 0.00 0.00 99 1017.8
20260903074338 72 345 0.0 0.0 0.00 0.00 0.00 99 1018.1
20260903073834 71 344 0.0 0.0 0.00 0.00 0.00 99 1018.0
20260903073329 72 344 0.0 0.0 0.00 0.00 0.00 99 1018.1
20260903072825 72 343 0.0 0.0 0.00 0.00 0.00 99 1017.9
20260903072321 72 345 0.0 0.0 0.00 0.00 0.00 99 1017.8
20260903071818 72 345 0.0 0.0 0.00 0.00 0.00 99 1017.9
20260903071314 72 345 0.0 0.0 0.00 0.00 0.00 99 1017.8
20260903070814 72 340 0.0 0.0 0.00 0.00 0.00 99 1018.0
20260903070309 72 346 0.0 0.0 0.00 0.00 0.00 99 1017.7
20260903065804 72 344 0.0 0.0 0.00 0.00 0.00 99 1017.7
20260903065306 72 350 0.0 0.0 0.00 0.00 0.00 99 1017.8
20260903064803 72 338 0.0 0.0 0.00 0.00 0.00 99 1017.8
20260903064258 72 341 0.0 0.0 0.00 0.00 0.00 99 1017.8
20260903063754 72 341 0.0 0.0 0.00 0.00 0.00 99 1017.8
20260903063249 72 342 0.0 0.0 0.00 0.00 0.00 99 1017.7
20260903062745 72 342 0.0 0.0 0.00 0.00 0.00 99 1017.7
20260903062239 72 342 0.0 0.0 0.00 0.00 0.00 99 1017.8
20260903061736 73 342 0.0 0.0 0.00 0.00 0.00 99 1017.8
20260903061233 73 342 0.0 0.0 0.00 0.00 0.00 99 1017.6
20260903060730 73 343 0.0 0.0 0.00 0.00 0.00 99 1017.8
20260903060229 73 343 0.0 0.0 0.00 0.00 0.00 99 1017.8
20260903055726 73 343 0.0 0.0 0.00 0.00 0.00 99 1017.7
20260903055225 73 344 0.0 0.0 0.00 0.00 0.00 99 1017.8
20260903054720 73 344 0.0 0.0 0.00 0.00 0.00 99 1017.8
20260903054215 73 344 0.0 0.0 0.00 0.00 0.00 99 1017.8
20260903053707 73 344 0.0 0.0 0.00 0.00 0.00 99 1017.9
20260903053201 73 346 0.0 0.0 0.00 0.00 0.00 99 1017.8
20260903052657 73 346 0.0 0.0 0.00 0.00 0.00 99 1017.9
20260903052147 73 346 0.0 0.0 0.00 0.00 0.00 99 1017.8
20260903051642 73 346 0.0 0.0 0.00 0.00 0.00 99 1017.6
20260903051138 73 346 0.0 0.0 0.00 0.00 0.00 99 1017.7
20260903050638 73 343 0.0 0.0 0.00 0.00 0.00 99 1017.4
20260903050132 73 340 0.0 0.0 0.00 0.00 0.00 99 1017.6
20260903045632 73 340 0.0 0.0 0.00 0.00 0.00 98 1017.4
20260903045129 74 342 0.0 0.0 0.00 0.00 0.00 98 1017.6
20260903044624 74 343 0.0 0.0 0.00 0.00 0.00 98 1017.4
20260903044120 74 341 0.0 0.0 0.00 0.00 0.00 98 1017.4
20260903043616 74 338 0.0 0.0 0.00 0.00 0.00 98 1017.7
20260903043115 74 341 0.0 0.0 0.00 0.00 0.00 98 1017.3
20260903042609 74 341 0.0 0.0 0.00 0.00 0.00 98 1017.4
20260903042105 74 341 0.0 0.0 0.00 0.00 0.00 98 1017.8
20260903041601 74 341 0.0 0.0 0.00 0.00 0.00 98 1017.4
20260903041056 74 341 0.0 0.0 0.00 0.00 0.00 98 1017.4
20260903040555 74 341 0.0 0.0 0.00 0.00 0.00 97 1017.6
20260903040052 74 341 0.0 0.0 0.00 0.00 0.00 97 1017.3
20260903035547 74 341 0.0 0.0 0.00 0.00 0.00 97 1017.2
20260903035043 74 341 0.0 0.0 0.00 0.00 0.00 97 1017.7
20260903034543 75 341 0.0 0.0 0.00 0.00 0.00 97 1017.8
20260903034038 75 341 0.0 0.0 0.00 0.00 0.00 97 1017.6
20260903033533 75 341 0.0 0.0 0.00 0.00 0.00 96 1017.6
20260903033029 75 341 0.0 0.0 0.00 0.00 0.00 96 1017.7
20260903032524 75 341 0.0 0.0 0.00 0.00 0.00 96 1017.7
20260903032019 75 342 0.0 0.0 0.00 0.00 0.00 95 1017.8
20260903031519 75 342 0.0 0.0 0.00 0.00 0.00 95 1017.8
20260903031014 75 342 0.0 0.0 0.00 0.00 0.00 95 1017.7
20260903030509 75 342 0.0 0.0 0.00 0.00 0.00 95 1017.8
20260903030006 75 341 0.0 0.0 0.00 0.00 0.00 95 1017.6
20260903025501 76 340 0.0 0.0 0.00 0.00 0.00 94 1017.9
20260903024956 76 343 0.0 0.0 0.00 0.00 0.00 94 1017.7
20260903024455 76 344 0.0 0.0 0.00 0.00 0.00 93 1017.7
20260903023955 76 344 0.0 0.0 0.00 0.00 0.00 93 1017.8
20260903023451 76 344 0.0 0.0 0.00 0.00 0.00 92 1017.8
20260903022946 76 344 0.0 0.0 0.00 0.00 0.00 92 1017.7
20260903022445 77 344 0.0 0.0 0.00 0.00 0.00 92 1017.9
20260903021943 77 343 0.0 0.0 0.00 0.00 0.00 92 1017.7
20260903021439 77 343 0.0 0.0 0.00 0.00 0.00 91 1017.7
20260903020934 77 346 0.0 0.0 0.00 0.00 0.00 90 1017.9
20260903020430 77 348 0.0 0.0 0.00 0.00 0.00 90 1017.9
20260903015924 77 347 0.0 0.0 0.00 0.00 0.00 92 1017.7
20260903015420 77 347 0.0 0.0 0.00 0.00 0.00 92 1017.9
20260903014916 77 347 0.0 0.0 0.00 0.00 0.00 92 1017.8
20260903014414 77 347 0.0 0.0 0.00 0.00 0.00 91 1017.8
20260903013911 77 347 0.0 0.0 0.00 0.00 0.00 91 1017.6
20260903013410 77 347 0.0 0.0 0.00 0.00 0.00 91 1017.8
20260903012909 77 347 0.0 0.0 0.00 0.00 0.00 91 1017.7
20260903012408 78 346 0.0 0.0 0.00 0.00 0.00 90 1017.8
20260903011907 78 346 0.0 0.0 0.00 0.00 0.00 90 1017.6
20260903011402 78 347 0.0 0.0 0.00 0.00 0.00 90 1017.4
20260903010857 78 346 0.0 0.0 0.00 0.00 0.00 89 1017.3
20260903010353 78 346 0.0 0.0 0.00 0.00 0.00 88 1017.3
20260903005851 79 346 0.0 0.0 0.00 0.00 0.00 88 1017.3
20260903005346 79 346 0.0 0.0 0.00 0.00 0.00 87 1017.2
20260903004842 79 346 0.0 0.0 0.00 0.00 0.00 87 1017.2
20260903004338 80 346 0.0 0.0 0.00 0.00 0.00 86 1017.1
20260903003833 80 346 0.0 0.0 0.00 0.00 0.00 85 1017.2
20260903003327 81 346 0.0 0.0 0.00 0.00 0.00 84 1017.0
20260903002827 81 347 0.0 0.0 0.00 0.00 0.00 84 1016.9
20260903002322 81 346 0.0 0.0 0.00 0.00 0.00 84 1017.0
20260903001817 82 346 0.0 0.0 0.00 0.00 0.00 83 1016.9
20260903001312 82 346 0.0 0.0 0.00 0.00 0.00 81 1017.1
20260903000812 83 346 0.0 0.0 0.00 0.00 0.00 81 1017.0
20260903000306 83 345 0.0 0.0 0.00 0.00 0.00 80 1017.1
20260902235804 84 343 0.0 0.0 0.00 0.00 0.00 78 1017.0
20260902235300 85 346 0.0 0.0 0.00 0.00 0.00 76 1017.0
20260902234754 86 346 0.0 0.0 0.00 0.00 0.00 75 1017.2
20260902234254 87 347 0.0 0.0 0.00 0.00 0.00 73 1017.2
20260902233754 87 340 0.0 0.0 0.00 0.00 0.00 72 1017.1
20260902233253 89 341 0.0 0.0 0.00 0.00 0.00 70 1017.1
20260902232746 89 341 0.0 0.0 0.00 0.00 0.00 66 1017.2
20260902232241 90 329 0.0 0.0 0.00 0.00 0.00 63 1017.0
20260902231740 91 325 0.0 0.0 0.00 0.00 0.00 62 1017.4
20260902231236 91 331 0.0 0.0 0.00 0.00 0.00 61 1017.1
20260902230736 91 342 1.0 2.0 0.00 0.00 0.00 60 1017.4
20260902230235 92 235 0.0 0.0 0.00 0.00 0.00 60 1017.4
20260902225730 92 290 0.0 0.0 0.00 0.00 0.00 58 1017.4
20260902225225 93 314 3.0 3.0 0.00 0.00 0.00 57 1017.2
20260902224723 93 236 2.0 3.0 0.00 0.00 0.00 57 1017.3
20260902224219 93 280 3.0 3.0 0.00 0.00 0.00 57 1017.4
20260902223715 94 282 0.0 0.0 0.00 0.00 0.00 58 1017.4
20260902223214 93 316 0.0 0.0 0.00 0.00 0.00 57 1017.3
20260902222713 93 332 3.0 5.0 0.00 0.00 0.00 56 1017.3
20260902222213 93 208 5.0 7.0 0.00 0.00 0.00 55 1017.6
20260902221707 94 242 3.0 3.0 0.00 0.00 0.00 57 1017.2
20260902221206 94 251 2.0 3.0 0.00 0.00 0.00 55 1017.3
20260902220703 94 321 1.0 1.0 0.00 0.00 0.00 56 1017.3
20260902220203 94 227 4.0 5.0 0.00 0.00 0.00 56 1017.2
20260902215658 95 276 4.0 5.0 0.00 0.00 0.00 53 1017.1
20260902215154 95 266 1.0 1.0 0.00 0.00 0.00 55 1017.7
20260902214649 95 269 3.0 5.0 0.00 0.00 0.00 52 1017.2
20260902214148 94 317 2.0 3.0 0.00 0.00 0.00 54 1017.6
20260902213643 95 233 4.0 6.0 0.00 0.00 0.00 53 1017.4
20260902213143 95 221 4.0 5.0 0.00 0.00 0.00 53 1017.3
20260902212638 94 259 2.0 3.0 0.00 0.00 0.00 55 1017.6
20260902212134 94 214 4.0 5.0 0.00 0.00 0.00 54 1017.2
20260902211631 95 184 4.0 5.0 0.00 0.00 0.00 54 1017.4
20260902211125 95 180 5.0 6.0 0.00 0.00 0.00 53 1017.6
20260902210625 96 330 2.0 3.0 0.00 0.00 0.00 53 1017.6
20260902210120 95 221 7.0 8.0 0.00 0.00 0.00 53 1017.6
20260902205619 95 254 4.0 6.0 0.00 0.00 0.00 52 1017.9
20260902205114 94 215 4.0 6.0 0.00 0.00 0.00 54 1017.7
20260902204608 96 222 3.0 6.0 0.00 0.00 0.00 51 1017.7
20260902204103 95 218 9.0 10.0 0.00 0.00 0.00 54 1017.8
20260902203559 95 233 4.0 5.0 0.00 0.00 0.00 54 1017.8
20260902203058 95 337 0.0 0.0 0.00 0.00 0.00 51 1017.9